080628 J59  0.1-  1.0+    080725 213  0.0   0.5+    080809 900  0.1-  0.2-  

080628 J52  0.6-  1.1+    080725 B42  1.1+  0.5-    080809 204  0.0   0.1-  

080628 J59  0.7-  1.2+    080725 J97  0.1+  0.3+    080809 204  0.0   0.0   

080628 J52  0.8-  0.6+    080725 B42  0.5+  0.5-    080809 J59  0.2-  0.3-  

080628 J52  0.4-  0.4+    080725 B42  1.3+  0.8+    080809 J59  0.3-  0.3-  

080628 B66  0.4+  0.5+    080725 B49  0.3+  0.5+    080809 J59  0.4-  0.2-  

080628 945  0.4-  0.1+    080725 B49  0.0   0.4+    080809 945  0.3+  1.1-  

080628 945  0.1+  0.1-    080725 232  0.4-  0.1+    080809 945  0.2+  0.8-  

080628 945  0.1-  0.2-    080725 B49  0.3+  0.3+    080809 945  0.2+  0.7-  

080628 B66  0.1+  0.4+    080725 B49  0.3+  0.7+    080809 945  0.2+  1.0-  

080628 945  0.2+  0.3+    080725 232  0.4-  0.1+    080809 945  0.2+  0.8-  

080628 945  0.3+  0.1+    080725 213  0.4-  0.5+    080809 J38  0.0   0.2+  

080628 B66  0.5+  0.5+    080725 232  0.7-  0.0     080809 J47  0.7-  0.3-  

080628 B66  0.0   0.1+    080726 750  0.2-  0.6+    080809 J38  0.1+  0.1+  

080628 B66  0.1+  0.3+    080726 750  0.2+  0.1+    080809 J51  0.5-  0.3-  

080628 B66  0.2-  0.6+    080726 750  0.4-  1.0-    080809 J38  0.1-  0.1+  

080629 B19  1.3-  0.8+    080726 750  0.1+  0.9+    080809 232  0.1-  0.3-  

080629 B19  0.6-  0.9+    080726 B42  0.6+  0.8-    080809 J51  0.4-  0.2-  

080629 B19  0.3-  0.9+    080726 B42  0.0   0.4-    080809 232  0.0   0.4-  

080629 A02  0.0   0.2-    080726 B42  0.4+  0.7-    080809 232  0.0   0.3-  

080629 A02  0.0   0.2-    080726 B42  0.0   0.4-    080809 J51  0.5-  0.4-  

080629 A02  0.0   0.0     080726 941  0.2+  0.1+    080809 J47  0.9-  0.1-  

080629 B66  0.2+  0.5+    080726 941  0.1+  0.3+    080809 J47 (0.2-  3.0-) 

080629 B59  0.2+  0.1+    080726 J46  0.3-  0.8-    080810 J53  0.3-  1.0-  

080629 B66  0.4+  0.4+    080726 J47  0.3-  0.5+    080810 J53  0.4-  0.9-  

080629 844  0.2+  0.1+    080726 J46  0.3-  0.6-    080810 J53  0.4-  0.9-  

080629 844  0.3+  0.2+    080726 J47  0.2-  0.5+    080810 J47  0.2-  0.1-  

080629 844  0.4+  0.3+    080726 J47  0.0   0.7+    080810 J47  0.3-  0.1-  

080629 844  0.5+  0.1+    080726 941  0.1+  0.2+    080810 J47  0.2-  0.1+  

080630 349  0.0   1.4-    080726 J46  0.2-  0.3-    080810 J47  0.0   0.1+  

080630 349  0.1-  1.0-    080726 J47  0.1-  0.4+    080810 J47  0.2-  0.0   

080630 215  0.2-  0.2+    080726 J39  0.4-  0.2+    080810 J40  0.3+  0.7-  

080630 215  0.3-  0.0     080726 J39  0.6-  0.0     080811 J40  0.3+  0.7-  

080630 215  0.4-  0.1-    080726 J53  0.1-  0.4-    080811 J40  0.1+  0.8-  

080630 B68  0.5-  0.6-    080726 J53  0.0   0.4-    080811 750 (1.5-  2.1+) 

080630 B68  0.6-  0.5-    080726 945  0.3+  0.3-    080811 750 (1.5-  2.4+) 

080630 B68  0.9-  0.4-    080726 945  0.2+  0.3-    080812 J38  0.5-  0.1-  

080702 130  0.0   0.3+    080726 945  0.1+  0.5-    080812 J38  0.4-  0.0   

080702 130  0.0   0.2+    080726 945  0.0   0.3-    080812 J38  0.3-  0.1-  

080702 130  0.2-  0.0     080726 945  0.0   0.5-    080813 458  0.3-  0.2+  

080702 130  0.0   0.1+    080726 J53  0.0   0.3-    080813 458  0.1+  0.3+  

080702 H45  0.1+  0.1-    080727 213  0.2+  0.6+    080813 458  0.1-  0.1-  

080702 H45  0.1+  0.1-    080727 213  0.3+  0.4+    080815 349  0.7-  0.2-  

080702 H45  0.4+  0.2+    080727 213  0.1+  0.4+    080815 349  0.9-  0.0   

080702 H45  0.2+  0.1-    080727 379  0.2+  0.5+    080815 349  0.7-  0.3-  

080702 H45  0.2-  0.5-    080727 379  0.1+  0.4+    080816 J47  1.3-  0.8-  

080702 B42  0.4+  0.4+    080727 379  0.3+  0.0     080816 J47  0.4-  0.5-  

080702 J47  0.0   0.2-    080727 379  0.2+  0.5+    080816 J47  0.9-  1.1-  

080702 J47  0.2+  0.5+    080727 379  0.2+  0.4+    080816 J47  0.2-  0.2+  

080702 J47  0.2+  0.4+    080727 B15  0.2-  0.0     080816 B37  0.0   1.2-  

080703 850  0.1-  0.1+    080727 B15  0.2-  0.1-    080816 B37  0.1+  1.4-  

080703 850  0.4+  0.1-    080727 B15  0.2-  0.0     080816 B37  0.1-  1.6-  

080703 850  0.4+  0.4-    080727 B15  0.2-  0.1+    080816 B37  0.0   1.2-  

080703 J40  0.1-  0.5+    080727 B49  0.2-  0.4+    080816 B37  0.0   1.2-  

080703 J40  0.2+  0.4+    080727 B49  0.2+  0.0     080817 900  0.0   0.5-  

080703 J40  0.0   0.4+    080727 J70  0.3+  0.1-    080817 900  0.0   0.5-  

080703 J40  0.1-  0.9+    080727 J70  0.5+  0.5-    080817 945  0.4-  0.9-  

080704 D88  0.1+  0.7+    080727 B49  0.2+  0.2+    080817 945  0.5+  1.1-  

080704 D88  1.1+  0.6+    080727 J70  0.2+  0.2+    080817 945  0.4+  0.7-  

080704 D88  0.6+  0.5+    080727 J70  0.2+  0.2-    080817 J59  0.5-  0.6-  

080704 B49  0.2+  0.5+    080727 J70  0.2+  0.6-    080817 945  0.2-  1.4-  

080704 B49  0.4+  0.2+    080727 J70  0.1+  0.7-    080817 945  0.1+  1.0-  

080704 B49  0.5+  0.2+    080727 J70  0.3+  0.3-    080817 J59  0.3-  0.6-  

080704 J40  0.4+  1.2+    080727 B49  0.1+  0.1+    080817 J59  0.3-  0.4-  

080704 J40  0.8+  1.1+    080727 J70  0.3+  0.2-    080817 J38  0.4-  0.4-  

080704 J40  0.4+  0.7+    080727 J70  0.2+  0.3-    080817 J38  0.2-  0.5-  

080704 J40  0.8+  0.7+    080727 J47  0.3-  0.4+    080817 J38  0.2-  0.4-  

080704 B20  0.5+  0.6+    080727 J47  0.3-  0.4+    080817 J47  0.2-  0.6-  

080704 B20  0.3+  0.3+    080727 J47  0.1+  0.4+    080817 J47  0.4-  0.6-  

080704 B20  0.1-  0.3-    080727 J47  0.2-  0.5+    080817 J47  0.0   0.5-  

080705 900  0.2+  0.2+    080728 762  0.4-  0.2+    080817 J47  0.2-  0.6-  

080705 900  0.3+  0.1+    080728 H47  0.2+  0.8+    080817 J47  0.3-  0.5-  

080705 A77  1.7+  0.2+    080728 762  0.4-  0.4+                            

080705 J47  1.6-  0.7-    080728 H47  0.2-  0.2+                            

NAKANO

         **** Don't distribute anyone except personal use only ****

                (C) Copyright 2008 OAA/ComputingSection

write mail from CFAD0::NAKANO on 2008-09-07 23:13:40(JST).





◎6P/d'Arrestの軌道と予報位置



 この彗星の増光が報告されています.スペインのゴンザレスの8月19日の眼視

観測では,彗星の光度は 8.3等でした.この頃の予報光度は,天文ガイド9月号

にあるとおり,13等級ですので,彗星は,5等級ほど明るいことになります.な

お,上尾の門田健一氏は,CCD全光度を8月2日に12.3等,15日に11.7等と観測

しています.

 次の連結軌道は,1995年出現時の近日点通過後の観測,2001年出現時と今期の

観測,1274個から計算したものです.山本速報2587にある連結軌道からの今期

の観測の残差は,最大で赤経方向に-3",赤緯方向に+9"(7月下旬),また,8

月17日の観測に約3"のずれがありました.



   6P/d'Arrest

Epoch 2008 Aug. 2.0 TT = JDT 2454680.5  

T 2008 Aug. 14.96457 TT                                 Nakano

q   1.3534708            (2000.0)            P               Q

n   0.15078656     Peri.  178.12381     +0.73331152     +0.64350718

a   3.4959157      Node   138.93691     -0.62805919     +0.76475650

e   0.6128423      Incl.   19.51508     -0.26037641     -0.03234208

P   6.54

From 1274 observations 1995 Aug.-2008, mean residual 0".52.

   Nongravitational parameters A1 = -0.15 +/- 0.01, A2 = +0.1250 +/- 0.0005.

 

Date/        TT  R.A.(2000) Decl.     Delta   r     Daily motion  Mag.  Moon Age

              h    h  m       。  ,                      ,  / PA 。  m1      。

2008 Aug. 20 12  20 26.02  -22 24.4   0.368  1.355    58.8 / 152   8.3   69  .86

          21 12  20 28.04  -23 16.2   0.370  1.356    58.1 / 151   8.3   83  .77

          22 12  20 30.10  -24 06.8   0.373  1.356    57.2 / 150   8.4   96  .67

          23 12  20 32.20  -24 56.4   0.376  1.357    56.3 / 149   8.4  110  .56

          24 12  20 34.34  -25 44.6   0.379  1.358    55.4 / 148   8.4  124  .44

          25 12  20 36.52  -26 31.6   0.383  1.359    54.4 / 147   8.4  138  .33

          26 12  20 38.73  -27 17.3   0.387  1.360    53.4 / 146   8.4  151  .23

          27 12  20 40.97  -28 01.5   0.390  1.361    52.3 / 145   8.5  164  .14

          28 12  20 43.25  -28 44.4   0.395  1.362    51.3 / 144   8.5  171  .07

          29 12  20 45.56  -29 25.8   0.399  1.364    50.2 / 143   8.5  163  .02

          30 12  20 47.91  -30 05.7   0.403  1.365    49.2 / 142   8.5  150  .00

          31 12  20 50.28  -30 44.1   0.408  1.367    48.1 / 140   8.6  138  .01

     Sept. 1 12  20 52.68  -31 21.0   0.413  1.369    47.0 / 139   8.6  125  .03

           2 12  20 55.11  -31 56.4   0.418  1.370    46.0 / 138   8.6  112  .08

           3 12  20 57.56  -32 30.2   0.423  1.372    44.9 / 136   8.7  100  .14

           4 12  21 00.03  -33 02.6   0.428  1.374    43.9 / 135   8.7   89  .22

           5 12  21 02.53  -33 33.4   0.434  1.376    42.9 / 133   8.7   77  .31

           6 12  21 05.04  -34 02.7   0.439  1.378    42.0 / 132   8.8   66  .40

           7 12  21 07.58  -34 30.5   0.445  1.380    41.0 / 130   8.8   55  .49

           8 12  21 10.13  -34 56.9   0.451  1.383    40.1 / 129   8.8   45  .59

           9 12  21 12.69  -35 21.8   0.457  1.385    39.2 / 127   8.9   35  .68

          10 12  21 15.26  -35 45.3   0.463  1.388    38.4 / 125   8.9   26  .76

          11 12  21 17.85  -36 07.3   0.470  1.390    37.5 / 124   8.9   20  .84

          12 12  21 20.44  -36 28.0   0.476  1.393    36.8 / 122   9.0   20  .91

          13 12  21 23.04  -36 47.3   0.483  1.396    36.0 / 120   9.0   26  .96

          14 12  21 25.64  -37 05.3   0.490  1.398    35.3 / 118   9.0   36  .99

          15 12  21 28.24  -37 22.0   0.497  1.401    34.6 / 117   9.1   48 1.00

          16 12  21 30.85  -37 37.4   0.504  1.404    34.0 / 115   9.1   60  .98

          17 12  21 33.45  -37 51.6   0.511  1.407    33.4 / 113   9.2   72  .94

          18 12  21 36.05  -38 04.6   0.518  1.411    32.8 / 111   9.2   85  .88

          19 12  21 38.65  -38 16.4   0.525  1.414    32.3 / 109   9.2   98  .79

          20 12  21 41.24  -38 27.0   0.533  1.417    31.8 / 108   9.3  111  .69

          21 12  21 43.83  -38 36.5   0.541  1.421    31.3 / 106   9.3  123  .58

          22 12  21 46.40  -38 44.9   0.548  1.424    30.9 / 104   9.3  135  .47

          23 12  21 48.97  -38 52.3   0.556  1.428    30.5 / 102   9.4  145  .36

          24 12  21 51.53  -38 58.6   0.564  1.431    30.2 / 100   9.4  153  .25

